Year,Month,Day,Hour,Minute,Value (Times are PST for windgust in km/hr)
2010,11,21,00,00,3.20
2010,11,21,00,01,4.80
2010,11,21,00,02,3.20
2010,11,21,00,03,3.20
2010,11,21,00,04,4.80
2010,11,21,00,05,4.80
2010,11,21,00,06,4.80
2010,11,21,00,07,6.40
2010,11,21,00,08,4.80
2010,11,21,00,09,4.80
2010,11,21,00,10,3.20
2010,11,21,00,11,1.60
2010,11,21,00,12,3.20
2010,11,21,00,13,4.80
2010,11,21,00,14,4.80
2010,11,21,00,15,3.20
2010,11,21,00,16,3.20
2010,11,21,00,17,3.20
2010,11,21,00,18,3.20
2010,11,21,00,19,1.60
2010,11,21,00,20,3.20
2010,11,21,00,21,3.20
2010,11,21,00,22,3.20
2010,11,21,00,23,3.20
2010,11,21,00,24,4.80
2010,11,21,00,25,3.20
2010,11,21,00,26,3.20
2010,11,21,00,27,4.80
2010,11,21,00,28,4.80
2010,11,21,00,29,4.80
2010,11,21,00,30,4.80
2010,11,21,00,31,4.80
2010,11,21,00,32,3.20
2010,11,21,00,33,3.20
2010,11,21,00,34,4.80
2010,11,21,00,35,4.80
2010,11,21,00,36,4.80
2010,11,21,00,37,3.20
2010,11,21,00,38,4.80
2010,11,21,00,39,6.40
2010,11,21,00,40,6.40
2010,11,21,00,41,4.80
2010,11,21,00,42,4.80
2010,11,21,00,43,4.80
2010,11,21,00,44,4.80
2010,11,21,00,45,4.80
2010,11,21,00,46,4.80
2010,11,21,00,47,4.80
2010,11,21,00,48,3.20
2010,11,21,00,49,4.80
2010,11,21,00,50,4.80
2010,11,21,00,51,1.60
2010,11,21,00,52,3.20
2010,11,21,00,53,3.20
2010,11,21,00,54,3.20
2010,11,21,00,55,3.20
2010,11,21,00,56,3.20
2010,11,21,00,57,3.20
2010,11,21,00,58,3.20
2010,11,21,00,59,1.60
2010,11,21,01,00,3.20
2010,11,21,01,01,3.20
2010,11,21,01,02,4.80
2010,11,21,01,03,3.20
2010,11,21,01,04,3.20
2010,11,21,01,05,4.80
2010,11,21,01,06,3.20
2010,11,21,01,07,3.20
2010,11,21,01,08,4.80
2010,11,21,01,09,4.80
2010,11,21,01,10,4.80
2010,11,21,01,11,6.40
2010,11,21,01,12,6.40
2010,11,21,01,13,6.40
2010,11,21,01,14,6.40
2010,11,21,01,15,4.80
2010,11,21,01,16,4.80
2010,11,21,01,17,4.80
2010,11,21,01,18,4.80
2010,11,21,01,19,4.80
2010,11,21,01,20,4.80
2010,11,21,01,21,4.80
2010,11,21,01,22,8.10
2010,11,21,01,23,6.40
2010,11,21,01,24,1.60
2010,11,21,01,26,3.20
2010,11,21,01,27,3.20
2010,11,21,01,28,1.60
2010,11,21,01,29,3.20
2010,11,21,01,30,6.40
2010,11,21,01,31,4.80
2010,11,21,01,32,1.60
2010,11,21,01,33,4.80
2010,11,21,01,34,4.80
2010,11,21,01,35,3.20
2010,11,21,01,36,1.60
2010,11,21,01,37,1.60
2010,11,21,01,38,3.20
2010,11,21,01,39,4.80
2010,11,21,01,40,3.20
2010,11,21,01,41,3.20
2010,11,21,01,42,3.20
2010,11,21,01,43,3.20
2010,11,21,01,44,6.40
2010,11,21,01,45,3.20
2010,11,21,01,46,4.80
2010,11,21,01,47,3.20
2010,11,21,01,48,4.80
2010,11,21,01,49,1.60
2010,11,21,01,50,1.60
2010,11,21,01,51,3.20
2010,11,21,01,52,3.20
2010,11,21,01,53,1.60
2010,11,21,01,54,3.20
2010,11,21,01,55,3.20
2010,11,21,01,56,3.20
2010,11,21,01,57,3.20
2010,11,21,01,58,4.80
2010,11,21,01,59,3.20
2010,11,21,02,00,3.20
2010,11,21,02,01,1.60
2010,11,21,02,02,3.20
2010,11,21,02,03,3.20
2010,11,21,02,04,1.60
2010,11,21,02,05,1.60
2010,11,21,02,06,1.60
2010,11,21,02,11,1.60
2010,11,21,02,12,6.40
2010,11,21,02,13,6.40
2010,11,21,02,14,6.40
2010,11,21,02,16,4.80
2010,11,21,02,17,6.40
2010,11,21,02,18,1.60
2010,11,21,02,21,1.60
2010,11,21,02,23,8.10
2010,11,21,02,24,4.80
2010,11,21,02,25,3.20
2010,11,21,02,26,6.40
2010,11,21,02,27,14.50
2010,11,21,02,28,11.30
2010,11,21,02,29,9.60
2010,11,21,02,30,8.10
2010,11,21,02,31,4.80
2010,11,21,02,32,3.20
2010,11,21,02,33,1.60
2010,11,21,02,34,3.20
2010,11,21,02,35,4.80
2010,11,21,02,36,4.80
2010,11,21,02,37,3.20
2010,11,21,02,40,3.20
2010,11,21,02,41,3.20
2010,11,21,02,42,4.80
2010,11,21,02,43,1.60
2010,11,21,02,44,4.80
2010,11,21,02,45,11.30
2010,11,21,02,46,9.60
2010,11,21,02,47,14.50
2010,11,21,02,48,9.60
2010,11,21,02,49,8.10
2010,11,21,02,50,8.10
2010,11,21,02,51,1.60
2010,11,21,02,52,4.80
2010,11,21,02,53,6.40
2010,11,21,02,54,6.40
2010,11,21,02,55,4.80
2010,11,21,02,56,3.20
2010,11,21,02,57,9.60
2010,11,21,02,58,11.30
2010,11,21,02,59,8.10
2010,11,21,03,00,9.60
2010,11,21,03,01,4.80
2010,11,21,03,02,11.30
2010,11,21,03,03,6.40
2010,11,21,03,04,6.40
2010,11,21,03,05,4.80
2010,11,21,03,06,9.60
2010,11,21,03,07,9.60
2010,11,21,03,08,16.10
2010,11,21,03,09,14.50
2010,11,21,03,10,11.30
2010,11,21,03,11,8.10
2010,11,21,03,12,6.40
2010,11,21,03,13,1.60
2010,11,21,03,14,8.10
2010,11,21,03,15,4.80
2010,11,21,03,16,3.20
2010,11,21,03,17,4.80
2010,11,21,03,18,9.60
2010,11,21,03,19,8.10
2010,11,21,03,20,9.60
2010,11,21,03,21,6.40
2010,11,21,03,22,6.40
2010,11,21,03,23,4.80
2010,11,21,03,24,8.10
2010,11,21,03,25,6.40
2010,11,21,03,26,4.80
2010,11,21,03,27,3.20
2010,11,21,03,28,4.80
2010,11,21,03,31,3.20
2010,11,21,03,32,6.40
2010,11,21,03,33,6.40
2010,11,21,03,34,4.80
2010,11,21,03,35,6.40
2010,11,21,03,36,3.20
2010,11,21,03,37,3.20
2010,11,21,03,38,6.40
2010,11,21,03,39,4.80
2010,11,21,03,40,6.40
2010,11,21,03,41,6.40
2010,11,21,03,42,8.10
2010,11,21,03,43,9.60
2010,11,21,03,44,9.60
2010,11,21,03,45,9.60
2010,11,21,03,46,8.10
2010,11,21,03,47,4.80
2010,11,21,03,48,6.40
2010,11,21,03,49,6.40
2010,11,21,03,50,8.10
2010,11,21,03,51,4.80
2010,11,21,03,52,6.40
2010,11,21,03,53,6.40
2010,11,21,03,54,6.40
2010,11,21,03,55,8.10
2010,11,21,03,56,3.20
2010,11,21,03,57,14.50
2010,11,21,03,58,6.40
2010,11,21,03,59,8.10
2010,11,21,04,00,4.80
2010,11,21,04,01,9.60
2010,11,21,04,02,6.40
2010,11,21,04,03,6.40
2010,11,21,04,04,4.80
2010,11,21,04,05,3.20
2010,11,21,04,06,3.20
2010,11,21,04,07,1.60
2010,11,21,04,08,3.20
2010,11,21,04,09,1.60
2010,11,21,04,10,6.40
2010,11,21,04,11,8.10
2010,11,21,04,12,6.40
2010,11,21,04,13,4.80
2010,11,21,04,14,6.40
2010,11,21,04,15,8.10
2010,11,21,04,16,9.60
2010,11,21,04,17,6.40
2010,11,21,04,18,8.10
2010,11,21,04,19,8.10
2010,11,21,04,20,6.40
2010,11,21,04,21,8.10
2010,11,21,04,22,8.10
2010,11,21,04,23,9.60
2010,11,21,04,24,3.20
2010,11,21,04,25,6.40
2010,11,21,04,26,4.80
2010,11,21,04,27,6.40
2010,11,21,04,28,6.40
2010,11,21,04,29,4.80
2010,11,21,04,30,4.80
2010,11,21,04,31,3.20
2010,11,21,04,32,8.10
2010,11,21,04,33,6.40
2010,11,21,04,34,4.80
2010,11,21,04,35,14.50
2010,11,21,04,36,16.10
2010,11,21,04,37,16.10
2010,11,21,04,38,11.30
2010,11,21,04,39,8.10
2010,11,21,04,40,14.50
2010,11,21,04,41,11.30
2010,11,21,04,42,8.10
2010,11,21,04,43,17.70
2010,11,21,04,44,14.50
2010,11,21,04,45,16.10
2010,11,21,04,46,9.60
2010,11,21,04,47,11.30
2010,11,21,04,48,16.10
2010,11,21,04,49,9.60
2010,11,21,04,50,14.50
2010,11,21,04,51,20.90
2010,11,21,04,52,17.70
2010,11,21,04,53,14.50
2010,11,21,04,54,9.60
2010,11,21,04,55,6.40
2010,11,21,04,56,14.50
2010,11,21,04,57,8.10
2010,11,21,04,58,12.90
2010,11,21,04,59,16.10
2010,11,21,05,00,16.10
2010,11,21,05,01,16.10
2010,11,21,05,02,8.10
2010,11,21,05,03,9.60
2010,11,21,05,04,11.30
2010,11,21,05,05,20.90
2010,11,21,05,06,16.10
2010,11,21,05,07,17.70
2010,11,21,05,08,12.90
2010,11,21,05,09,12.90
2010,11,21,05,10,16.10
2010,11,21,05,11,16.10
2010,11,21,05,12,14.50
2010,11,21,05,13,11.30
2010,11,21,05,14,16.10
2010,11,21,05,15,11.30
2010,11,21,05,16,8.10
2010,11,21,05,17,8.10
2010,11,21,05,18,16.10
2010,11,21,05,19,17.70
2010,11,21,05,20,9.60
2010,11,21,05,21,9.60
2010,11,21,05,22,8.10
2010,11,21,05,23,9.60
2010,11,21,05,24,11.30
2010,11,21,05,25,11.30
2010,11,21,05,26,6.40
2010,11,21,05,27,11.30
2010,11,21,05,28,12.90
2010,11,21,05,29,14.50
2010,11,21,05,30,12.90
2010,11,21,05,31,11.30
2010,11,21,05,32,9.60
2010,11,21,05,33,9.60
2010,11,21,05,34,9.60
2010,11,21,05,35,9.60
2010,11,21,05,36,16.10
2010,11,21,05,37,11.30
2010,11,21,05,38,17.70
2010,11,21,05,39,17.70
2010,11,21,05,40,14.50
2010,11,21,05,41,11.30
2010,11,21,05,42,11.30
2010,11,21,05,43,4.80
2010,11,21,05,44,9.60
2010,11,21,05,45,11.30
2010,11,21,05,46,14.50
2010,11,21,05,47,14.50
2010,11,21,05,48,9.60
2010,11,21,05,49,11.30
2010,11,21,05,50,16.10
2010,11,21,05,51,14.50
2010,11,21,05,52,12.90
2010,11,21,05,53,14.50
2010,11,21,05,54,17.70
2010,11,21,05,55,11.30
2010,11,21,05,56,8.10
2010,11,21,05,57,14.50
2010,11,21,05,58,8.10
2010,11,21,05,59,9.60
2010,11,21,06,00,14.50
2010,11,21,06,01,12.90
2010,11,21,06,02,12.90
2010,11,21,06,03,11.30
2010,11,21,06,04,9.60
2010,11,21,06,05,8.10
2010,11,21,06,06,14.50
2010,11,21,06,07,16.10
2010,11,21,06,08,22.50
2010,11,21,06,09,19.30
2010,11,21,06,10,14.50
2010,11,21,06,11,25.70
2010,11,21,06,12,17.70
2010,11,21,06,13,17.70
2010,11,21,06,14,14.50
2010,11,21,06,15,17.70
2010,11,21,06,16,14.50
2010,11,21,06,17,17.70
2010,11,21,06,18,14.50
2010,11,21,06,19,11.30
2010,11,21,06,20,16.10
2010,11,21,06,21,11.30
2010,11,21,06,22,8.10
2010,11,21,06,23,11.30
2010,11,21,06,24,11.30
2010,11,21,06,25,11.30
2010,11,21,06,26,20.90
2010,11,21,06,27,11.30
2010,11,21,06,28,16.10
2010,11,21,06,29,14.50
2010,11,21,06,30,6.40
2010,11,21,06,31,8.10
2010,11,21,06,32,8.10
2010,11,21,06,33,14.50
2010,11,21,06,34,12.90
2010,11,21,06,35,19.30
2010,11,21,06,36,16.10
2010,11,21,06,37,8.10
2010,11,21,06,38,6.40
2010,11,21,06,39,6.40
2010,11,21,06,40,17.70
2010,11,21,06,41,9.60
2010,11,21,06,42,9.60
2010,11,21,06,43,9.60
2010,11,21,06,44,8.10
2010,11,21,06,45,8.10
2010,11,21,06,46,4.80
2010,11,21,06,47,11.30
2010,11,21,06,48,9.60
2010,11,21,06,49,17.70
2010,11,21,06,50,17.70
2010,11,21,06,51,14.50
2010,11,21,06,52,11.30
2010,11,21,06,53,6.40
2010,11,21,06,54,6.40
2010,11,21,06,55,9.60
2010,11,21,06,56,9.60
2010,11,21,06,57,11.30
2010,11,21,06,58,11.30
2010,11,21,06,59,8.10
2010,11,21,07,00,6.40
2010,11,21,07,01,9.60
2010,11,21,07,02,8.10
2010,11,21,07,03,11.30
2010,11,21,07,04,11.30
2010,11,21,07,05,11.30
2010,11,21,07,06,11.30
2010,11,21,07,07,9.60
2010,11,21,07,08,11.30
2010,11,21,07,09,9.60
2010,11,21,07,10,8.10
2010,11,21,07,11,9.60
2010,11,21,07,12,9.60
2010,11,21,07,13,17.70
2010,11,21,07,14,20.90
2010,11,21,07,15,22.50
2010,11,21,07,16,14.50
2010,11,21,07,17,11.30
2010,11,21,07,18,12.90
2010,11,21,07,19,14.50
2010,11,21,07,20,14.50
2010,11,21,07,21,8.10
2010,11,21,07,22,9.60
2010,11,21,07,23,12.90
2010,11,21,07,24,14.50
2010,11,21,07,25,14.50
2010,11,21,07,26,11.30
2010,11,21,07,27,9.60
2010,11,21,07,28,9.60
2010,11,21,07,29,8.10
2010,11,21,07,30,6.40
2010,11,21,07,31,1.60
2010,11,21,07,32,4.80
2010,11,21,07,33,1.60
2010,11,21,07,34,3.20
2010,11,21,07,35,3.20
2010,11,21,07,36,1.60
2010,11,21,07,37,4.80
2010,11,21,07,38,3.20
2010,11,21,07,39,1.60
2010,11,21,07,40,3.20
2010,11,21,07,41,6.40
2010,11,21,07,42,3.20
2010,11,21,07,43,4.80
2010,11,21,07,44,6.40
2010,11,21,07,45,4.80
2010,11,21,07,46,6.40
2010,11,21,07,47,8.10
2010,11,21,07,48,6.40
2010,11,21,07,49,4.80
2010,11,21,07,50,1.60
2010,11,21,07,51,3.20
2010,11,21,07,52,1.60
2010,11,21,07,55,1.60
2010,11,21,07,56,4.80
2010,11,21,07,57,3.20
2010,11,21,07,58,1.60
2010,11,21,07,59,1.60
2010,11,21,08,00,1.60
2010,11,21,08,02,1.60
2010,11,21,08,05,1.60
2010,11,21,08,08,1.60
2010,11,21,08,12,3.20
2010,11,21,08,13,3.20
2010,11,21,08,14,4.80
2010,11,21,08,15,6.40
2010,11,21,08,16,8.10
2010,11,21,08,17,9.60
2010,11,21,08,18,6.40
2010,11,21,08,19,6.40
2010,11,21,08,20,14.50
2010,11,21,08,21,11.30
2010,11,21,08,22,11.30
2010,11,21,08,23,11.30
2010,11,21,08,24,11.30
2010,11,21,08,25,11.30
2010,11,21,08,26,8.10
2010,11,21,08,27,9.60
2010,11,21,08,28,8.10
2010,11,21,08,29,11.30
2010,11,21,08,30,11.30
2010,11,21,08,31,17.70
2010,11,21,08,32,16.10
2010,11,21,08,33,14.50
2010,11,21,08,34,11.30
2010,11,21,08,35,9.60
2010,11,21,08,36,11.30
2010,11,21,08,37,17.70
2010,11,21,08,38,9.60
2010,11,21,08,39,16.10
2010,11,21,08,40,12.90
2010,11,21,08,41,9.60
2010,11,21,08,42,11.30
2010,11,21,08,43,9.60
2010,11,21,08,44,14.50
2010,11,21,08,45,16.10
2010,11,21,08,46,24.20
2010,11,21,08,47,20.90
2010,11,21,08,48,20.90
2010,11,21,08,49,12.90
2010,11,21,08,50,9.60
2010,11,21,08,51,19.30
2010,11,21,08,52,16.10
2010,11,21,08,53,17.70
2010,11,21,08,54,12.90
2010,11,21,08,55,14.50
2010,11,21,08,56,14.50
2010,11,21,08,57,12.90
2010,11,21,08,58,12.90
2010,11,21,08,59,9.60
2010,11,21,09,00,8.10
2010,11,21,09,01,14.50
2010,11,21,09,02,14.50
2010,11,21,09,03,16.10
2010,11,21,09,04,16.10
2010,11,21,09,05,17.70
2010,11,21,09,06,16.10
2010,11,21,09,07,19.30
2010,11,21,09,08,16.10
2010,11,21,09,09,8.10
2010,11,21,09,10,9.60
2010,11,21,09,11,16.10
2010,11,21,09,12,20.90
2010,11,21,09,13,17.70
2010,11,21,09,14,16.10
2010,11,21,09,15,17.70
2010,11,21,09,16,9.60
2010,11,21,09,17,12.90
2010,11,21,09,18,11.30
2010,11,21,09,19,14.50
2010,11,21,09,20,20.90
2010,11,21,09,21,12.90
2010,11,21,09,22,19.30
2010,11,21,09,23,17.70
2010,11,21,09,24,19.30
2010,11,21,09,25,14.50
2010,11,21,09,26,17.70
2010,11,21,09,27,22.50
2010,11,21,09,28,19.30
2010,11,21,09,29,27.40
2010,11,21,09,30,16.10
2010,11,21,09,31,17.70
2010,11,21,09,32,19.30
2010,11,21,09,33,22.50
2010,11,21,09,34,22.50
2010,11,21,09,35,22.50
2010,11,21,09,36,17.70
2010,11,21,09,37,20.90
2010,11,21,09,38,19.30
2010,11,21,09,39,9.60
2010,11,21,09,40,29.00
2010,11,21,09,41,29.00
2010,11,21,09,42,19.30
2010,11,21,09,43,22.50
2010,11,21,09,44,17.70
2010,11,21,09,45,24.20
2010,11,21,09,46,19.30
2010,11,21,09,47,27.40
2010,11,21,09,48,24.20
2010,11,21,09,49,14.50
2010,11,21,09,50,27.40
2010,11,21,09,51,24.20
2010,11,21,09,52,22.50
2010,11,21,09,53,19.30
2010,11,21,09,54,14.50
2010,11,21,09,55,14.50
2010,11,21,09,56,22.50
2010,11,21,09,57,22.50
2010,11,21,09,58,22.50
2010,11,21,09,59,24.20
2010,11,21,10,00,12.90
2010,11,21,10,01,20.90
2010,11,21,10,02,16.10
2010,11,21,10,03,17.70
2010,11,21,10,04,16.10
2010,11,21,10,05,17.70
2010,11,21,10,06,16.10
2010,11,21,10,07,19.30
2010,11,21,10,08,20.90
2010,11,21,10,09,9.60
2010,11,21,10,10,17.70
2010,11,21,10,11,24.20
2010,11,21,10,12,19.30
2010,11,21,10,13,14.50
2010,11,21,10,14,11.30
2010,11,21,10,15,14.50
2010,11,21,10,16,19.30
2010,11,21,10,17,30.60
2010,11,21,10,18,14.50
2010,11,21,10,19,11.30
2010,11,21,10,20,19.30
2010,11,21,10,21,24.20
2010,11,21,10,22,22.50
2010,11,21,10,23,22.50
2010,11,21,10,24,22.50
2010,11,21,10,25,17.70
2010,11,21,10,26,16.10
2010,11,21,10,27,16.10
2010,11,21,10,28,16.10
2010,11,21,10,29,27.40
2010,11,21,10,30,22.50
2010,11,21,10,31,20.90
2010,11,21,10,32,29.00
2010,11,21,10,33,29.00
2010,11,21,10,34,24.20
2010,11,21,10,35,30.60
2010,11,21,10,36,27.40
2010,11,21,10,37,25.70
2010,11,21,10,38,27.40
2010,11,21,10,39,33.80
2010,11,21,10,40,20.90
2010,11,21,10,41,25.70
2010,11,21,10,42,19.30
2010,11,21,10,43,32.20
2010,11,21,10,44,25.70
2010,11,21,10,45,19.30
2010,11,21,10,46,16.10
2010,11,21,10,47,22.50
2010,11,21,10,48,25.70
2010,11,21,10,49,25.70
2010,11,21,10,50,32.20
2010,11,21,10,51,30.60
2010,11,21,10,52,27.40
2010,11,21,10,53,22.50
2010,11,21,10,54,20.90
2010,11,21,10,55,22.50
2010,11,21,10,56,24.20
2010,11,21,10,57,19.30
2010,11,21,10,58,19.30
2010,11,21,10,59,25.70
2010,11,21,11,00,27.40
2010,11,21,11,01,29.00
2010,11,21,11,02,24.20
2010,11,21,11,03,22.50
2010,11,21,11,04,19.30
2010,11,21,11,05,22.50
2010,11,21,11,06,35.40
2010,11,21,11,07,25.70
2010,11,21,11,08,24.20
2010,11,21,11,09,20.90
2010,11,21,11,10,30.60
2010,11,21,11,11,30.60
2010,11,21,11,12,33.80
2010,11,21,11,13,29.00
2010,11,21,11,14,20.90
2010,11,21,11,15,25.70
2010,11,21,11,16,27.40
2010,11,21,11,17,17.70
2010,11,21,11,18,25.70
2010,11,21,11,19,27.40
2010,11,21,11,20,27.40
2010,11,21,11,21,27.40
2010,11,21,11,22,24.20
2010,11,21,11,23,25.70
2010,11,21,11,24,27.40
2010,11,21,11,25,16.10
2010,11,21,11,26,27.40
2010,11,21,11,27,17.70
2010,11,21,11,28,16.10
2010,11,21,11,29,19.30
2010,11,21,11,30,17.70
2010,11,21,11,31,19.30
2010,11,21,11,32,29.00
2010,11,21,11,33,29.00
2010,11,21,11,34,24.20
2010,11,21,11,35,25.70
2010,11,21,11,36,24.20
2010,11,21,11,37,24.20
2010,11,21,11,38,30.60
2010,11,21,11,39,20.90
2010,11,21,11,40,25.70
2010,11,21,11,41,19.30
2010,11,21,11,42,11.30
2010,11,21,11,43,20.90
2010,11,21,11,44,22.50
2010,11,21,11,45,29.00
2010,11,21,11,46,24.20
2010,11,21,11,47,24.20
2010,11,21,11,48,24.20
2010,11,21,11,49,19.30
2010,11,21,11,50,27.40
2010,11,21,11,51,22.50
2010,11,21,11,52,19.30
2010,11,21,11,53,20.90
2010,11,21,11,54,24.20
2010,11,21,11,55,19.30
2010,11,21,11,56,20.90
2010,11,21,11,57,20.90
2010,11,21,11,58,22.50
2010,11,21,11,59,29.00
2010,11,21,12,00,30.60
2010,11,21,12,01,30.60
2010,11,21,12,02,27.40
2010,11,21,12,03,27.40
2010,11,21,12,04,27.40
2010,11,21,12,05,32.20
2010,11,21,12,06,27.40
2010,11,21,12,07,35.40
2010,11,21,12,08,33.80
2010,11,21,12,09,22.50
2010,11,21,12,10,27.40
2010,11,21,12,11,24.20
2010,11,21,12,12,27.40
2010,11,21,12,13,30.60
2010,11,21,12,14,29.00
2010,11,21,12,15,20.90
2010,11,21,12,16,19.30
2010,11,21,12,17,25.70
2010,11,21,12,18,33.80
2010,11,21,12,19,29.00
2010,11,21,12,20,24.20
2010,11,21,12,21,22.50
2010,11,21,12,22,30.60
2010,11,21,12,23,32.20
2010,11,21,12,24,20.90
2010,11,21,12,25,30.60
2010,11,21,12,26,20.90
2010,11,21,12,27,14.50
2010,11,21,12,28,22.50
2010,11,21,12,29,25.70
2010,11,21,12,30,22.50
2010,11,21,12,31,25.70
2010,11,21,12,32,20.90
2010,11,21,12,33,27.40
2010,11,21,12,34,22.50
2010,11,21,12,35,24.20
2010,11,21,12,36,20.90
2010,11,21,12,37,17.70
2010,11,21,12,38,12.90
2010,11,21,12,39,20.90
2010,11,21,12,40,17.70
2010,11,21,12,41,19.30
2010,11,21,12,42,20.90
2010,11,21,12,43,17.70
2010,11,21,12,44,17.70
2010,11,21,12,45,19.30
2010,11,21,12,46,25.70
2010,11,21,12,47,32.20
2010,11,21,12,48,30.60
2010,11,21,12,49,27.40
2010,11,21,12,50,24.20
2010,11,21,12,51,27.40
2010,11,21,12,52,17.70
2010,11,21,12,53,20.90
2010,11,21,12,54,22.50
2010,11,21,12,55,22.50
2010,11,21,12,56,24.20
2010,11,21,12,57,32.20
2010,11,21,12,58,29.00
2010,11,21,12,59,20.90
2010,11,21,13,00,22.50
2010,11,21,13,01,19.30
2010,11,21,13,02,32.20
2010,11,21,13,03,32.20
2010,11,21,13,04,20.90
2010,11,21,13,05,27.40
2010,11,21,13,06,20.90
2010,11,21,13,07,12.90
2010,11,21,13,08,25.70
2010,11,21,13,09,27.40
2010,11,21,13,10,24.20
2010,11,21,13,11,20.90
2010,11,21,13,12,27.40
2010,11,21,13,13,16.10
2010,11,21,13,14,24.20
2010,11,21,13,15,25.70
2010,11,21,13,16,22.50
2010,11,21,13,17,24.20
2010,11,21,13,18,17.70
2010,11,21,13,19,19.30
2010,11,21,13,20,29.00
2010,11,21,13,21,27.40
2010,11,21,13,22,24.20
2010,11,21,13,23,25.70
2010,11,21,13,24,27.40
2010,11,21,13,25,25.70
2010,11,21,13,26,22.50
2010,11,21,13,27,27.40
2010,11,21,13,28,19.30
2010,11,21,13,29,19.30
2010,11,21,13,30,24.20
2010,11,21,13,31,25.70
2010,11,21,13,32,19.30
2010,11,21,13,33,22.50
2010,11,21,13,34,20.90
2010,11,21,13,35,29.00
2010,11,21,13,36,20.90
2010,11,21,13,37,29.00
2010,11,21,13,38,17.70
2010,11,21,13,39,24.20
2010,11,21,13,40,20.90
2010,11,21,13,41,20.90
2010,11,21,13,42,24.20
2010,11,21,13,43,27.40
2010,11,21,13,44,27.40
2010,11,21,13,45,19.30
2010,11,21,13,46,25.70
2010,11,21,13,47,30.60
2010,11,21,13,48,24.20
2010,11,21,13,49,19.30
2010,11,21,13,50,29.00
2010,11,21,13,51,25.70
2010,11,21,13,52,27.40
2010,11,21,13,53,25.70
2010,11,21,13,54,25.70
2010,11,21,13,55,27.40
2010,11,21,13,56,25.70
2010,11,21,13,57,29.00
2010,11,21,13,58,27.40
2010,11,21,13,59,27.40
2010,11,21,14,00,27.40
2010,11,21,14,01,27.40
2010,11,21,14,02,25.70
2010,11,21,14,03,20.90
2010,11,21,14,04,16.10
2010,11,21,14,05,19.30
2010,11,21,14,06,27.40
2010,11,21,14,07,20.90
2010,11,21,14,08,24.20
2010,11,21,14,09,27.40
2010,11,21,14,10,25.70
2010,11,21,14,11,22.50
2010,11,21,14,12,19.30
2010,11,21,14,13,27.40
2010,11,21,14,14,20.90
2010,11,21,14,15,19.30
2010,11,21,14,16,20.90
2010,11,21,14,17,22.50
2010,11,21,14,18,37.00
2010,11,21,14,19,22.50
2010,11,21,14,20,30.60
2010,11,21,14,21,27.40
2010,11,21,14,22,20.90
2010,11,21,14,23,24.20
2010,11,21,14,24,24.20
2010,11,21,14,25,20.90
2010,11,21,14,26,16.10
2010,11,21,14,27,14.50
2010,11,21,14,28,19.30
2010,11,21,14,29,27.40
2010,11,21,14,30,14.50
2010,11,21,14,31,19.30
2010,11,21,14,32,14.50
2010,11,21,14,33,16.10
2010,11,21,14,34,14.50
2010,11,21,14,35,14.50
2010,11,21,14,36,17.70
2010,11,21,14,37,22.50
2010,11,21,14,38,25.70
2010,11,21,14,39,24.20
2010,11,21,14,40,25.70
2010,11,21,14,41,20.90
2010,11,21,14,42,22.50
2010,11,21,14,43,30.60
2010,11,21,14,44,11.30
2010,11,21,14,45,16.10
2010,11,21,14,46,14.50
2010,11,21,14,47,19.30
2010,11,21,14,48,17.70
2010,11,21,14,49,16.10
2010,11,21,14,50,20.90
2010,11,21,14,51,11.30
2010,11,21,14,52,19.30
2010,11,21,14,53,29.00
2010,11,21,14,54,27.40
2010,11,21,14,55,19.30
2010,11,21,14,56,25.70
2010,11,21,14,57,27.40
2010,11,21,14,58,27.40
2010,11,21,14,59,24.20
2010,11,21,15,00,24.20
2010,11,21,15,01,25.70
2010,11,21,15,02,20.90
2010,11,21,15,03,29.00
2010,11,21,15,04,17.70
2010,11,21,15,05,17.70
2010,11,21,15,06,16.10
2010,11,21,15,07,16.10
2010,11,21,15,08,19.30
2010,11,21,15,09,20.90
2010,11,21,15,10,20.90
2010,11,21,15,11,16.10
2010,11,21,15,12,16.10
2010,11,21,15,13,20.90
2010,11,21,15,14,19.30
2010,11,21,15,15,22.50
2010,11,21,15,16,25.70
2010,11,21,15,17,24.20
2010,11,21,15,18,19.30
2010,11,21,15,19,19.30
2010,11,21,15,20,20.90
2010,11,21,15,21,25.70
2010,11,21,15,22,19.30
2010,11,21,15,23,19.30
2010,11,21,15,24,27.40
2010,11,21,15,25,27.40
2010,11,21,15,26,22.50
2010,11,21,15,27,19.30
2010,11,21,15,28,19.30
2010,11,21,15,29,22.50
2010,11,21,15,30,25.70
2010,11,21,15,31,17.70
2010,11,21,15,32,12.90
2010,11,21,15,33,17.70
2010,11,21,15,34,19.30
2010,11,21,15,35,16.10
2010,11,21,15,36,17.70
2010,11,21,15,37,11.30
2010,11,21,15,38,27.40
2010,11,21,15,39,25.70
2010,11,21,15,40,17.70
2010,11,21,15,41,17.70
2010,11,21,15,42,17.70
2010,11,21,15,43,14.50
2010,11,21,15,44,11.30
2010,11,21,15,45,19.30
2010,11,21,15,46,17.70
2010,11,21,15,47,20.90
2010,11,21,15,48,17.70
2010,11,21,15,49,19.30
2010,11,21,15,50,14.50
2010,11,21,15,51,17.70
2010,11,21,15,52,14.50
2010,11,21,15,53,9.60
2010,11,21,15,54,9.60
2010,11,21,15,55,3.20
2010,11,21,15,56,8.10
2010,11,21,15,57,9.60
2010,11,21,15,58,16.10
2010,11,21,15,59,22.50
2010,11,21,16,00,20.90
2010,11,21,16,01,17.70
2010,11,21,16,02,16.10
2010,11,21,16,03,14.50
2010,11,21,16,04,20.90
2010,11,21,16,05,17.70
2010,11,21,16,06,9.60
2010,11,21,16,07,6.40
2010,11,21,16,08,16.10
2010,11,21,16,09,24.20
2010,11,21,16,10,17.70
2010,11,21,16,11,14.50
2010,11,21,16,12,9.60
2010,11,21,16,13,8.10
2010,11,21,16,14,8.10
2010,11,21,16,15,8.10
2010,11,21,16,16,11.30
2010,11,21,16,17,9.60
2010,11,21,16,18,8.10
2010,11,21,16,19,14.50
2010,11,21,16,20,14.50
2010,11,21,16,21,19.30
2010,11,21,16,22,19.30
2010,11,21,16,23,14.50
2010,11,21,16,24,17.70
2010,11,21,16,25,14.50
2010,11,21,16,26,16.10
2010,11,21,16,27,11.30
2010,11,21,16,28,19.30
2010,11,21,16,29,17.70
2010,11,21,16,30,16.10
2010,11,21,16,31,14.50
2010,11,21,16,32,17.70
2010,11,21,16,33,22.50
2010,11,21,16,34,22.50
2010,11,21,16,35,16.10
2010,11,21,16,36,11.30
2010,11,21,16,37,9.60
2010,11,21,16,38,11.30
2010,11,21,16,39,17.70
2010,11,21,16,40,16.10
2010,11,21,16,41,11.30
2010,11,21,16,42,12.90
2010,11,21,16,43,17.70
2010,11,21,16,44,11.30
2010,11,21,16,45,6.40
2010,11,21,16,46,8.10
2010,11,21,16,47,19.30
2010,11,21,16,48,16.10
2010,11,21,16,49,22.50
2010,11,21,16,50,17.70
2010,11,21,16,51,17.70
2010,11,21,16,52,19.30
2010,11,21,16,53,19.30
2010,11,21,16,54,14.50
2010,11,21,16,55,9.60
2010,11,21,16,56,8.10
2010,11,21,16,57,16.10
2010,11,21,16,58,24.20
2010,11,21,16,59,19.30
2010,11,21,17,00,19.30
2010,11,21,17,01,11.30
2010,11,21,17,02,11.30
2010,11,21,17,03,22.50
2010,11,21,17,04,20.90
2010,11,21,17,05,25.70
2010,11,21,17,06,16.10
2010,11,21,17,07,14.50
2010,11,21,17,08,19.30
2010,11,21,17,09,11.30
2010,11,21,17,10,11.30
2010,11,21,17,11,11.30
2010,11,21,17,12,17.70
2010,11,21,17,13,11.30
2010,11,21,17,14,16.10
2010,11,21,17,15,20.90
2010,11,21,17,16,14.50
2010,11,21,17,17,14.50
2010,11,21,17,18,20.90
2010,11,21,17,19,20.90
2010,11,21,17,20,22.50
2010,11,21,17,21,25.70
2010,11,21,17,22,22.50
2010,11,21,17,23,19.30
2010,11,21,17,24,19.30
2010,11,21,17,25,24.20
2010,11,21,17,26,14.50
2010,11,21,17,27,20.90
2010,11,21,17,28,20.90
2010,11,21,17,29,16.10
2010,11,21,17,30,17.70
2010,11,21,17,31,19.30
2010,11,21,17,32,19.30
2010,11,21,17,33,20.90
2010,11,21,17,34,17.70
2010,11,21,17,35,11.30
2010,11,21,17,36,16.10
2010,11,21,17,37,20.90
2010,11,21,17,38,19.30
2010,11,21,17,39,19.30
2010,11,21,17,40,12.90
2010,11,21,17,41,19.30
2010,11,21,17,42,19.30
2010,11,21,17,43,19.30
2010,11,21,17,44,11.30
2010,11,21,17,45,19.30
2010,11,21,17,46,19.30
2010,11,21,17,47,20.90
2010,11,21,17,48,20.90
2010,11,21,17,49,11.30
2010,11,21,17,50,16.10
2010,11,21,17,51,14.50
2010,11,21,17,52,16.10
2010,11,21,17,53,17.70
2010,11,21,17,54,14.50
2010,11,21,17,55,9.60
2010,11,21,17,56,19.30
2010,11,21,17,57,22.50
2010,11,21,17,58,24.20
2010,11,21,17,59,17.70